UITMSAT-1 (43589 NORAD) Tracking and Keplerian Element Data

This shows tracking and keplerian element data for the satellite.

Feedback or suggestion? Click here.




ElementValue
Catalog43589
NameUITMSAT-1
Epoch Orbit4478
Epoch Day144.32765678
Epoch Year2019
RAAN110.6409
Inclination51.636
Eccentricity0.0006634
Argument of Perigee58.8677
Mean Anonmoly301.2967
Mean Motion15.61171749
Decay Rate9.488E-05
L11 43589U 98067PD 19144.32765678 .00009488 00000-0 11595-3 0 9995
L22 43589 51.6360 110.6409 0006634 58.8677 301.2967 15.61171749 44786

Live tracking and technical data element details for UITMSAT-1 (NORAD 43589). UITMSAT-1 can be tracked NOW for your location showing map with azimuth and elevation plus other details from your city location.

Track the satellite on the map from your city or location and see movement details for azimuth, elevation, latitude, longitude, range, height, and movement on the map or in text.







IsCatalogInMostPopularTable: catalog: 43589, numindb: 149
Update: records affected: 1



GetName: 43589 UITMSAT-1

Hit Count: updated at: Fri, 24 May 2019 20:47:23 GMT